This demonstration page uses our WeatherBlox Daily Observations layout. Learn more.

41.86663, -103.66717

Hourly Observations for May 11, 2019

Temp ( °F °C ) Dew Point ( °F °C ) Humidity (%) Winds ( mph kmh ) Pressure ( in mb ) Visibility ( mi km ) Precip ( " mm )
12:53 am 00:53 Clear 37 2.8 35 1.7 93 93 E 8 13 29.93 1014 10 16.0934 0 0
1:53 am 01:53 Clear 37 2.8 34 1.1 89 89 ESE 6 9 29.91 1013 10 16.0934 0 0
2:53 am 02:53 Mostly Clear 36 2.2 34 1.1 93 93 N 6 9 29.89 1012 10 16.0934 0 0
3:53 am 03:53 Partly Cloudy 37 2.8 34 1.1 89 89 NW 6 9 29.89 1012 10 16.0934 0 0
4:53 am 04:53 Mostly Clear 35 1.7 34 1.1 96 96 NW 6 9 29.89 1012 10 16.0934 0 0
5:53 am 05:53 Sunny 35 1.7 34 1.1 96 96 WNW 7 11 29.91 1013 10 16.0934 0 0
6:53 am 06:53 Partly Cloudy 40 4.4 37 2.8 89 89 Calm 29.91 1013 10 16.0934 0 0
7:53 am 07:53 Cloudy 43 6.1 39 3.9 86 86 WNW 5 7 29.93 1014 10 16.0934 0 0
8:38 am 08:38 Cloudy 48 8.9 41 5 77 77 NW 15 24 29.92 1013 10 16.0934 0 0
8:46 am 08:46 Cloudy 48 8.9 40 4.4 74 74 NW 28 44 29.93 1014 10 16.0934 0 0
8:53 am 08:53 Cloudy 48 8.9 39 3.9 71 71 NW 23 37 29.94 1014 10 16.0934 0 0
9:53 am 09:53 Cloudy 48 8.9 38 3.3 68 68 NW 20 31 29.95 1014 10 16.0934 0 0.0254
10:53 am 10:53 Cloudy with Light Rain 48 8.9 37 2.8 66 66 NW 17 28 29.97 1015 10 16.0934 0 0.0254
11:53 am 11:53 Cloudy 49 9.4 38 3.3 66 66 W 15 24 29.94 1014 10 16.0934 0 0.0254
12:53 pm 12:53 Partly Cloudy 53 11.7 37 2.8 55 55 NW 20 31 29.94 1014 10 16.0934 0 0
1:53 pm 13:53 Mostly Cloudy 55 12.8 33 0.6 44 44 NNW 23 37 29.92 1013 10 16.0934 0 0
2:53 pm 14:53 Mostly Cloudy with Heavy Rain 47 8.3 38 3.3 71 71 NW 18 30 29.93 1014 4 6.43736 0.02 0.508
3:34 pm 15:34 Cloudy 55 12.8 39 3.9 55 55 N 16 26 29.82 1010 10 16.0934 0.01 0.254
3:53 pm 15:53 Cloudy 57 13.9 36 2.2 45 45 NNW 21 33 29.88 1012 10 16.0934 0.01 0.254
4:53 pm 16:53 Mostly Cloudy 57 13.9 33 0.6 41 41 N 15 24 29.88 1012 10 16.0934 0 0
5:53 pm 17:53 Mostly Cloudy 59 15 31 -0.6 35 35 NNW 21 33 29.87 1012 10 16.0934 0 0
6:53 pm 18:53 Sunny 57 13.9 28 -2.2 33 33 NNW 21 33 29.85 1011 10 16.0934 0 0
7:53 pm 19:53 Sunny 52 11.1 30 -1.1 43 43 N 10 17 29.87 1012 10 16.0934 0 0
8:53 pm 20:53 Clear 44 6.7 31 -0.6 60 60 NNW 9 15 29.9 1013 10 16.0934 0 0
9:53 pm 21:53 Clear 40 4.4 31 -0.6 70 70 NNE 8 13 29.93 1014 10 16.0934 0 0
10:53 pm 22:53 Clear 38 3.3 30 -1.1 73 73 W 7 11 29.94 1014 10 16.0934 0 0
11:53 pm 23:53 Clear 37 2.8 30 -1.1 76 76 NW 8 13 29.95 1014 10 16.0934 0 0

Powered by AerisWeather